Showing default

ACS 3, 59588

Orbit data source: Space-Track

ACS 3, 59588 is a payload satellite owned by ARC (US) in SSO that was launched on Tue, 23 Apr 2024 UTC via an ELECTRON launch vehicle from the Rocket Lab Launch Complex (RLLC). Payload-class satellites include a variety of spacecraft equipped with specific instruments for various scientific and technological missions. These include communications satellites like Starlink; space stations such as the ISS; scientific satellites like the Hubble; Earth observation satellites from companies like Planet Labs, Umbra, and HawkEye 360; GPS; miniature CubeSats for education and research; and military/defense satellites.

Loading next visibility...
Identifier
59588, 2024-077B
Orbit
SSO
Country
Flag of USUS
Related business
Manufacturer
ARC/NANAVU
Mission
Operational Civil Technology
Bus & Motor
CUBESAT 12U, Unknown motor
Mass
16.1 kg wet, 16.1 kg dry
Launch date (UTC)
2024-04-23 (2 years ago)
Launch vehicle
ELECTRON
Launch site
Rocket Lab Launch Complex (RLLC)
Object type
Payload
Rocket body
Debris
Shape & HBR
Box + 1 Sail, 6.3 m
Radar Cross Section
0.080 m², Large (>1 m²)

Expand to show TLE details & history
Last TLE update: 9 hours ago

TLE from 9 hours ago
0 ACS 3
1 59588U 24077B   26038.45773682  .00021026  00000-0  17385-1 0  9992
2 59588  97.2234 346.3658 0045485 171.9553 188.2350 13.88358010 90009
Epoch: 2026-02-07T10:59Z
TLE epoch observation values (Epoch: 2026-02-07T10:59:08.461Z)
Latitude
0.00004°
Longitude
43.99956°
Altitude
970.232 km
Speed
7.35 km/s
True Right ascension
23h 05m 27s
True Declination
0° 00' 00"
Sunlit
Object was in daylight at epoch
Visualization orbit readout
Latitude
Unknown
Longitude
Unknown
Altitude
Unknown
Speed
Unknown
Apparent Right ascension
Unknown
Apparent Declination
Unknown
Sunlit
N/A
Visualization observer readout
Local Sidereal Time
22:18:25
Azimuth
Unknown
Elevation
Unknown
Doppler factor
Unknown
Orbital elements
Apogee altitude
964.775 km
Perigee altitude
898.279 km
Semi-major axis
7,309.664 km
Eccentricity
0.00455
Inclination
97.2234°
RAAN
346.3658°
Arg. of periapsis
171.9553°
True anomaly
188.16076°
Mean anomaly
188.235°
Eccentric anomaly
188.19784°
Mean motion
3.47294 °/min
Orbital period
103.66 mins
BSTAR
0.017385
Loading maneuver chart data...
Computing Atmospheric mass density...
Loading historical data...
Loading historical data...
Loading historical data...
Loading historical data...
Loading historical data...
Loading historical data...
Loading historical data...
Other satellites on launch #77 in the year 2024 (2024-04-23 UTC)

Documentation

Showing up to 5 results
|